Torna al catalogo

OV2-3

AttivoMilitareHEO
NORAD 13912·PAYLOAD·🇺🇸 United States

Lanciato Dec 21, 1965 da Cape Canaveral Space Force Station

Loading…

Prossimi Passaggi (prossime 24 ore)

TLE

AggiornatoSource: Space-Track

Epoca: Sep 14, 2026, 07:56 UTC

1 13912U 65108V   26257.33088526  .00008506  00000-0  82148-3 0  9998
2 13912  26.6249 325.3816 5195050 347.2586   3.5284  5.33841905575462

Traccia OV2-3 in tempo reale con AllMySat

Download on the App Store